Regional Weather Roundup
Issued by NWS

Home | Current Version | Previous Version | Text Only | Print | Product List | Glossary Off
Versions: 1 2 3 4 5 6 7 8 9 10 11 12 13 14 15 16 17 18 19 20 21 22 23 24 25 26 27 28 29 30 31 32 33 34 35 36 37 38 39 40 41 42 43 44 45 46 47 48 49 50

000
ASUS43 KFSD 120010
RWRSD

WEATHER ROUNDUP FOR SOUTH DAKOTA
NATIONAL WEATHER SERVICE SIOUX FALLS SD
700 PM CDT FRI JUL 11 2014

NOTE: "FAIR" INDICATES FEW OR NO CLOUDS BELOW 12,000 FEET WITH NO
SIGNIFICANT WEATHER AND/OR OBSTRUCTIONS TO VISIBILITY.


SDZ001>005-009-010-012>017-120100-
NORTHWEST AND NORTH CENTRAL SOUTH DAKOTA

CITY           SKY/WX    TMP DP  RH WIND       PRES   REMARKS
BUFFALO          N/A     77  59  53 NE17      30.03R
FAITH            N/A     82  61  48 E9        30.05R
MOBRIDGE       MOSUNNY   86  63  45 NE5       29.98R
$$

SDZ012>016-024>037-041>051-057-063-072>074-120100-
SOUTHWEST AND SOUTH CENTRAL SOUTH DAKOTA

CITY           SKY/WX    TMP DP  RH WIND       PRES   REMARKS
RAPID CTY ARPT CLOUDY    66  63  90 SE9       30.14R THUNDER
PIERRE         PTSUNNY   79  63  57 NE20G36   29.96R
CUSTER         LGT RAIN  61  57  87 N5        30.25R
ELLSWORTH AFB  LGT RAIN  66  64  93 S13G25    30.12R
PHILIP         CLOUDY    82  68  62 NE3       29.99R
PINE RIDGE     TSTM      73  68  84 NE15      30.04R
WINNER         FAIR      84  71  65 SE10      29.97R
$$

SDZ004>011-016>023-039-040-120100-
NORTHEAST SOUTH DAKOTA

CITY           SKY/WX    TMP DP  RH WIND       PRES   REMARKS
ABERDEEN       SUNNY     85  67  54 NE7       29.96R
WATERTOWN      PTSUNNY   85  67  54 NE9       29.97R
SISSETON         N/A     87  68  52 N9        29.93S
$$

SDZ017-020-022-023-036>040-048>070-120100-
SOUTHEAST SOUTH DAKOTA

CITY           SKY/WX    TMP DP  RH WIND       PRES   REMARKS
SIOUX FALLS    PTSUNNY   80  72  76 S8        29.97S
HURON          SUNNY     88  66  48 N12       29.93R
CHAMBERLAIN    PTSUNNY   85  67  53 CALM      29.96R
MITCHELL       MOSUNNY   87  74  64 S10       29.95R HX  95
YANKTON        PTSUNNY   79  73  83 E5        29.96S
$$

ABBREVIATIONS USED IN REMARKS
   TC - TEMPERATURE IN CELSIUS
  WCI - WIND CHILL INDEX
   HX - HEAT INDEX
  VSB - VISIBILITY




USA.gov is the U.S. government's official web portal to all federal, state and local government web resources and services.